DW1234 Weather Reports


time (UTC)temp
F
wind
direction
speed
knots
gust
knots
rain 1hr
in
rain 24hr
in
rain mn
in
humidity
%
barometer
mb
20260508190233 76 271 7.8 11.3 0.00 0.00 0.00 25 1008.5
20260508190028 76 242 6.1 9.6 0.00 0.00 0.00 27 1007.6
20260508185805 76 205 6.1 10.4 0.00 0.00 0.00 27 1008.6
20260508185227 76 201 2.6 11.3 0.00 0.00 0.00 25 1008.7
20260508184737 77 222 7.8 11.3 0.00 0.00 0.00 29 1008.7
20260508184559 77 224 7.0 9.6 0.00 0.00 0.00 28 1007.7
20260508184502 77 270 4.3 9.6 0.00 0.00 0.00 27 1007.7
20260508184250 78 244 4.3 9.6 0.00 0.00 0.00 28 1008.7
20260508183730 78 207 3.5 8.7 0.00 0.00 0.00 24 1008.7
20260508183237 76 213 6.1 9.6 0.00 0.00 0.00 28 1008.8
20260508183001 76 222 4.3 9.6 0.00 0.00 0.00 25 1007.9
20260508182748 76 258 4.3 9.6 0.00 0.00 0.00 26 1008.9
20260508182232 76 200 4.3 7.8 0.00 0.00 0.00 26 1008.9
20260508181742 76 232 1.7 8.7 0.00 0.00 0.00 28 1008.9
20260508181507 76 232 3.5 8.7 0.00 0.00 0.00 28 1008.1
20260508181224 78 256 4.3 8.7 0.00 0.00 0.00 28 1009.0
20260508180732 78 348 3.5 5.2 0.00 0.00 0.00 26 1009.1
20260508180243 77 65 2.6 4.3 0.00 0.00 0.00 29 1009.1
20260508180044 77 65 0.9 5.2 0.00 0.00 0.00 30 1008.2
20260508175728 76 217 2.6 7.0 0.00 0.00 0.00 31 1009.1
20260508175254 75 126 3.5 7.0 0.00 0.00 0.00 25 1009.1
20260508174745 75 95 5.2 7.8 0.00 0.00 0.00 30 1009.2
20260508174611 74 81 2.6 7.8 0.00 0.00 0.00 28 1008.3
20260508174236 75 108 5.2 7.8 0.00 0.00 0.00 28 1009.3
20260508173747 75 99 3.5 5.2 0.00 0.00 0.00 29 1009.4
20260508173229 74 103 2.6 6.1 0.00 0.00 0.00 30 1009.4
20260508173006 73 5 2.6 7.0 0.00 0.00 0.00 29 1008.5
20260508172741 74 28 3.5 7.0 0.00 0.00 0.00 27 1009.4
20260508172221 75 5 4.3 7.0 0.00 0.00 0.00 27 1009.5
20260508171754 75 28 1.7 4.3 0.00 0.00 0.00 31 1009.5
20260508171551 74 279 0.9 5.2 0.00 0.00 0.00 30 1008.6
20260508171244 74 279 0.9 7.0 0.00 0.00 0.00 28 1009.6
20260508170726 74 19 4.3 8.7 0.00 0.00 0.00 26 1009.6
20260508170237 75 17 5.2 8.7 0.00 0.00 0.00 32 1009.6
20260508170054 74 355 2.6 8.7 0.00 0.00 0.00 31 1008.6
20260508170003 74 342 2.6 8.7 0.00 0.00 0.00 31 1008.6
20260508165720 74 202 0.9 8.7 0.00 0.00 0.00 31 1009.6
20260508165233 75 48 4.3 8.7 0.00 0.00 0.00 29 1009.6
20260508164741 76 317 3.5 9.6 0.00 0.00 0.00 29 1009.6
20260508164516 75 360 6.1 9.6 0.00 0.00 0.00 27 1008.6
20260508164225 75 63 6.1 9.6 0.00 0.00 0.00 28 1009.5
20260508163754 76 320 3.5 7.0 0.00 0.00 0.00 33 1009.6
20260508163244 74 134 2.6 7.0 0.00 0.00 0.00 37 1009.7
20260508163042 73 134 1.7 7.0 0.00 0.00 0.00 32 1008.7
20260508162728 74 93 5.2 7.0 0.00 0.00 0.00 32 1009.7
20260508162240 72 60 1.7 4.3 0.00 0.00 0.00 35 1009.6
20260508161749 73 120 0.9 7.8 0.00 0.00 0.00 36 1009.7
20260508161534 72 120 2.6 7.8 0.00 0.00 0.00 34 1008.7
20260508161238 73 140 4.3 7.8 0.00 0.00 0.00 35 1009.6
20260508160721 72 134 1.7 5.2 0.00 0.00 0.00 35 1009.7
20260508160253 73 143 1.7 5.2 0.00 0.00 0.00 40 1009.8
20260508160014 71 162 1.7 7.0 0.00 0.00 0.00 36 1008.8
20260508155743 71 227 1.7 7.0 0.00 0.00 0.00 39 1009.9
20260508155227 72 202 4.3 7.0 0.00 0.00 0.00 41 1009.8
20260508154739 70 130 3.5 6.1 0.00 0.00 0.00 45 1009.9
20260508154515 70 163 2.6 7.0 0.00 0.00 0.00 42 1009.0
20260508154225 70 161 2.6 7.0 0.00 0.00 0.00 46 1009.9
20260508153733 69 171 3.5 9.6 0.00 0.00 0.00 42 1010.0
20260508153240 68 184 2.6 9.6 0.00 0.00 0.00 47 1010.0
20260508153051 67 157 4.3 9.6 0.00 0.00 0.00 44 1009.1
20260508152723 68 155 4.3 7.0 0.00 0.00 0.00 45 1010.1
20260508152233 66 146 3.5 7.0 0.00 0.00 0.00 47 1010.0
20260508151745 65 144 3.5 7.0 0.00 0.00 0.00 47 1009.9
20260508151601 65 144 4.3 7.0 0.00 0.00 0.00 48 1009.1
20260508151230 65 153 4.3 7.0 0.00 0.00 0.00 47 1009.9
20260508150801 66 148 4.3 9.6 0.00 0.00 0.00 46 1009.9
20260508150223 65 175 5.2 9.6 0.00 0.00 0.00 45 1010.0
20260508150043 65 165 6.1 9.6 0.00 0.00 0.00 43 1009.1
20260508145729 65 147 7.0 8.7 0.00 0.00 0.00 45 1010.0
20260508145241 64 172 4.3 7.8 0.00 0.00 0.00 53 1010.0
20260508144724 64 147 5.2 7.8 0.00 0.00 0.00 46 1010.1
20260508144546 64 124 5.2 9.6 0.00 0.00 0.00 48 1009.2
20260508144257 63 156 4.3 9.6 0.00 0.00 0.00 50 1010.2
20260508143747 62 160 5.2 10.4 0.00 0.00 0.00 52 1010.2
20260508143257 61 169 4.3 6.1 0.00 0.00 0.00 52 1010.3
20260508143053 61 170 3.5 6.1 0.00 0.00 0.00 51 1009.5
20260508142742 61 152 1.7 4.3 0.00 0.00 0.00 53 1010.3
20260508142225 61 152 0.9 6.1 0.00 0.00 0.00 54 1010.3
20260508141739 61 159 2.6 6.1 0.00 0.00 0.00 57 1010.3
20260508141555 60 163 2.6 6.1 0.00 0.00 0.00 55 1009.4
20260508141249 60 180 3.5 5.2 0.00 0.00 0.00 55 1010.2
20260508140730 59 166 3.5 6.1 0.00 0.00 0.00 57 1010.2
20260508140241 58 184 4.3 6.1 0.00 0.00 0.00 59 1010.3
20260508140044 57 171 1.7 3.5 0.00 0.00 0.00 60 1009.4
20260508135724 57 171 1.7 3.5 0.00 0.00 0.00 63 1010.3
20260508135232 55 171 0.9 3.5 0.00 0.00 0.00 65 1010.2
20260508134744 55 171 1.7 3.5 0.00 0.00 0.00 67 1010.3
20260508134528 54 171 1.7 4.3 0.00 0.00 0.00 66 1009.4
20260508134227 54 171 1.7 5.2 0.00 0.00 0.00 64 1010.3
20260508133736 54 171 3.5 5.2 0.00 0.00 0.00 64 1010.4
20260508133247 54 171 2.6 4.3 0.00 0.00 0.00 62 1010.4
20260508133031 54 178 0.9 2.6 0.00 0.00 0.00 62 1009.6
20260508132728 54 178 1.7 4.3 0.00 0.00 0.00 62 1010.4
20260508132240 54 178 1.7 5.2 0.00 0.00 0.00 62 1010.4
20260508131724 54 175 3.5 6.1 0.00 0.00 0.00 61 1010.4
20260508131542 53 185 3.5 6.1 0.00 0.00 0.00 61 1009.6
20260508131232 54 189 3.5 6.1 0.00 0.00 0.00 60 1010.3
20260508130741 54 162 3.5 7.0 0.00 0.00 0.00 59 1010.2
20260508130310 54 157 4.3 6.1 0.00 0.00 0.00 58 1010.0
20260508130023 53 172 2.6 4.3 0.00 0.00 0.00 59 1009.2
20260508125731 53 172 2.6 4.3 0.00 0.00 0.00 58 1010.0
20260508125244 53 173 2.6 6.1 0.00 0.00 0.00 59 1009.9
20260508124727 53 218 3.5 6.1 0.00 0.00 0.00 58 1009.9
20260508124534 53 134 3.5 6.1 0.00 0.00 0.00 58 1009.1
20260508124243 53 158 4.3 6.1 0.00 0.00 0.00 58 1009.9
20260508123727 53 176 3.5 5.2 0.00 0.00 0.00 58 1009.9
20260508123235 52 158 1.7 7.0 0.00 0.00 0.00 58 1009.9
20260508123029 52 279 0.0 7.0 0.00 0.00 0.00 58 1009.1
20260508122805 52 301 3.5 7.0 0.00 0.00 0.00 60 1010.0
20260508122226 52 17 1.7 7.8 0.00 0.00 0.00 59 1009.9
20260508121739 51 13 3.5 7.8 0.00 0.00 0.00 60 1009.9
20260508121517 51 14 5.2 7.8 0.00 0.00 0.00 60 1009.2
20260508121252 51 309 4.3 7.0 0.00 0.00 0.00 60 1010.0
20260508120735 51 44 4.3 5.2 0.00 0.00 0.00 59 1009.8
20260508120246 51 348 3.5 7.8 0.00 0.00 0.00 59 1009.9
20260508120031 50 5 2.6 7.8 0.00 0.00 0.00 59 1009.0
20260508115725 51 355 5.2 7.8 0.00 0.00 0.00 59 1009.9
20260508115235 51 338 3.5 5.2 0.00 0.00 0.00 60 1010.0
20260508114748 50 355 3.5 5.2 0.00 0.00 0.00 60 1010.0
20260508114527 50 347 3.5 4.3 0.00 0.00 0.00 59 1009.2
20260508114231 50 5 4.3 4.3 0.00 0.00 0.00 59 1009.7
20260508113742 50 168 4.3 4.3 0.00 0.00 0.00 59 1009.7
20260508113224 50 168 3.5 4.3 0.00 0.00 0.00 58 1009.7
20260508113029 50 168 2.6 4.3 0.00 0.00 0.00 58 1008.9
20260508112739 50 168 3.5 4.3 0.00 0.00 0.00 58 1009.7
20260508112239 50 168 2.6 4.3 0.00 0.00 0.00 57 1009.7
20260508111739 51 168 2.6 4.3 0.00 0.00 0.00 57 1009.7
20260508111544 50 168 2.6 4.3 0.00 0.00 0.00 57 1009.0
20260508111301 51 168 3.5 5.2 0.00 0.00 0.00 57 1009.7
20260508110750 51 168 3.5 5.2 0.00 0.00 0.00 57 1009.8
20260508110306 51 168 4.3 5.2 0.00 0.00 0.00 57 1009.8
20260508110022 51 168 4.3 5.2 0.00 0.00 0.00 57 1009.0
20260508105731 51 168 3.5 4.3 0.00 0.00 0.00 57 1009.9
20260508105321 51 168 0.9 7.0 0.00 0.00 0.00 56 1009.8
20260508104728 51 168 4.3 7.8 0.00 0.00 0.00 56 1009.7
20260508104542 51 168 4.3 7.8 0.00 0.00 0.00 56 1008.9
20260508104241 52 163 4.3 7.8 0.00 0.00 0.00 55 1009.7
20260508103722 52 14 4.3 7.8 0.00 0.00 0.00 56 1010.0
20260508103235 52 20 5.2 7.8 0.00 0.00 0.00 56 1009.9
20260508103048 51 17 6.1 7.8 0.00 0.00 0.00 56 1009.2
20260508102743 52 10 6.1 8.7 0.00 0.00 0.00 57 1010.1
20260508102227 52 21 7.0 8.7 0.00 0.00 0.00 58 1010.2
20260508101740 52 12 6.1 7.8 0.00 0.00 0.00 56 1009.9
20260508101556 51 13 4.3 7.0 0.00 0.00 0.00 55 1009.2
20260508101249 52 9 3.5 5.2 0.00 0.00 0.00 56 1010.0
20260508100731 52 32 2.6 7.0 0.00 0.00 0.00 56 1010.1
20260508100259 52 5 5.2 7.0 0.00 0.00 0.00 57 1010.2
20260508100034 51 13 4.3 7.0 0.00 0.00 0.00 57 1009.4
20260508095722 52 17 5.2 7.8 0.00 0.00 0.00 59 1010.2
20260508095234 52 25 5.2 7.8 0.00 0.00 0.00 59 1010.2
20260508094744 52 19 5.2 7.0 0.00 0.00 0.00 56 1010.3
20260508094537 52 5 5.2 7.0 0.00 0.00 0.00 56 1009.7
20260508094229 53 355 4.3 7.0 0.00 0.00 0.00 56 1010.4
20260508093735 53 5 5.2 7.0 0.00 0.00 0.00 55 1010.4
20260508093247 53 5 4.3 5.2 0.00 0.00 0.00 53 1010.3
20260508093036 53 5 3.5 4.3 0.00 0.00 0.00 52 1009.6
20260508092729 54 201 3.5 3.5 0.00 0.00 0.00 51 1010.2
20260508092239 54 201 1.7 3.5 0.00 0.00 0.00 50 1010.2
20260508091750 54 201 1.7 3.5 0.00 0.00 0.00 50 1010.1
20260508091538 54 201 1.7 3.5 0.00 0.00 0.00 50 1009.5
20260508091236 54 202 0.9 2.6 0.00 0.00 0.00 50 1010.3
20260508090745 55 201 1.7 2.6 0.00 0.00 0.00 50 1010.3
20260508090225 55 201 0.0 3.5 0.00 0.00 0.00 49 1010.3
20260508090040 54 201 0.0 3.5 0.00 0.00 0.00 49 1009.7
20260508085752 55 201 2.6 3.5 0.00 0.00 0.00 48 1010.2
20260508085243 55 5 0.0 3.5 0.00 0.00 0.00 49 1010.3
20260508084726 55 5 0.9 3.5 0.00 0.00 0.00 49 1010.5
20260508084522 55 5 1.7 3.5 0.00 0.00 0.00 51 1009.7
20260508084240 55 360 2.6 4.3 0.00 0.00 0.00 50 1010.3
20260508083751 55 20 2.6 4.3 0.00 0.00 0.00 49 1010.1
20260508083301 55 204 2.6 3.5 0.00 0.00 0.00 48 1010.1
20260508083037 55 204 1.7 3.5 0.00 0.00 0.00 49 1009.4
20260508082725 56 204 0.9 3.5 0.00 0.00 0.00 48 1010.5
20260508082252 56 204 2.6 3.5 0.00 0.00 0.00 48 1010.2
20260508081742 56 204 1.7 3.5 0.00 0.00 0.00 48 1010.3
20260508081520 55 204 0.0 3.5 0.00 0.00 0.00 47 1009.8
20260508081256 56 204 1.7 3.5 0.00 0.00 0.00 46 1010.4
20260508080804 56 204 1.7 3.5 0.00 0.00 0.00 46 1010.6
20260508080225 56 204 0.0 6.1 0.00 0.00 0.00 47 1010.6
20260508080046 56 204 0.9 6.1 0.00 0.00 0.00 47 1010.1
20260508075731 56 204 4.3 6.1 0.00 0.00 0.00 46 1010.8
20260508075238 57 74 2.6 3.5 0.00 0.00 0.00 46 1010.6
20260508074809 57 120 0.9 1.7 0.00 0.00 0.00 46 1011.0
20260508074526 56 120 0.0 1.7 0.00 0.00 0.00 48 1010.4
20260508074232 57 120 0.9 2.6 0.00 0.00 0.00 46 1010.7
20260508073743 57 120 0.9 2.6 0.00 0.00 0.00 43 1010.8
20260508073226 57 120 1.7 5.2 0.00 0.00 0.00 43 1010.7
20260508073025 56 120 1.7 5.2 0.00 0.00 0.00 43 1010.0
20260508072737 57 120 2.6 5.2 0.00 0.00 0.00 43 1010.5
20260508072249 57 76 3.5 4.3 0.00 0.00 0.00 44 1010.3
20260508071727 57 52 0.9 5.2 0.00 0.00 0.00 43 1010.6
20260508071533 56 50 0.0 5.2 0.00 0.00 0.00 45 1010.0
20260508071240 57 34 3.5 5.2 0.00 0.00 0.00 46 1010.3
20260508070722 57 40 4.3 5.2 0.00 0.00 0.00 45 1010.3
20260508070234 57 26 3.5 4.3 0.00 0.00 0.00 44 1010.4
20260508070035 56 30 3.5 4.3 0.00 0.00 0.00 44 1009.8
20260508065746 57 52 3.5 4.3 0.00 0.00 0.00 43 1010.4
20260508065231 57 52 3.5 6.1 0.00 0.00 0.00 44 1010.4
20260508064742 57 38 4.3 6.1 0.00 0.00 0.00 46 1010.4
20260508064541 56 39 3.5 4.3 0.00 0.00 0.00 45 1009.8
20260508064228 57 53 3.5 4.3 0.00 0.00 0.00 44 1010.4
20260508063733 57 53 2.6 4.3 0.00 0.00 0.00 42 1010.6
20260508063245 57 54 3.5 4.3 0.00 0.00 0.00 42 1010.5
20260508063027 56 137 2.6 3.5 0.00 0.00 0.00 42 1010.0
20260508062728 57 137 2.6 3.5 0.00 0.00 0.00 43 1010.6
20260508062241 57 137 0.9 3.5 0.00 0.00 0.00 43 1010.7
20260508061724 57 137 1.7 3.5 0.00 0.00 0.00 43 1010.8
20260508061539 57 137 2.6 3.5 0.00 0.00 0.00 43 1010.2
20260508061237 58 137 3.5 3.5 0.00 0.00 0.00 43 1010.8
20260508060745 58 137 2.6 3.5 0.00 0.00 0.00 40 1010.8
20260508060229 58 91 1.7 3.5 0.00 0.00 0.00 39 1010.8
20260508060041 57 91 1.7 3.5 0.00 0.00 0.00 39 1010.1
20260508055738 58 91 2.6 3.5 0.00 0.00 0.00 40 1010.7
20260508055222 58 61 2.6 3.5 0.00 0.00 0.00 40 1010.6
20260508054733 58 57 2.6 3.5 0.00 0.00 0.00 40 1010.5
20260508054549 58 57 2.6 3.5 0.00 0.00 0.00 40 1009.8
20260508054244 58 57 2.6 4.3 0.00 0.00 0.00 40 1010.5
20260508053724 58 56 2.6 4.3 0.00 0.00 0.00 40 1010.4
20260508053236 58 57 2.6 4.3 0.00 0.00 0.00 40 1010.4
20260508053101 58 51 2.6 4.3 0.00 0.00 0.00 40 1009.8
20260508052746 58 53 3.5 4.3 0.00 0.00 0.00 40 1010.3
20260508052230 58 66 3.5 4.3 0.00 0.00 0.00 40 1010.4
20260508051737 58 58 3.5 4.3 0.00 0.00 0.00 40 1010.3
20260508051605 58 56 2.6 4.3 0.00 0.00 0.00 39 1009.8
20260508051249 58 50 3.5 5.2 0.00 0.00 0.00 39 1010.4
20260508050739 58 22 3.5 5.2 0.00 0.00 0.00 39 1010.4
20260508050248 58 24 3.5 4.3 0.00 0.00 0.00 40 1010.4
20260508050033 58 39 2.6 5.2 0.00 0.00 0.00 39 1010.0
20260508045749 58 42 3.5 5.2 0.00 0.00 0.00 39 1010.5
20260508045232 58 42 3.5 5.2 0.00 0.00 0.00 39 1010.6
20260508044743 58 49 3.5 4.3 0.00 0.00 0.00 38 1010.7
20260508044515 58 58 2.6 4.3 0.00 0.00 0.00 38 1010.2
20260508044232 58 58 2.6 3.5 0.00 0.00 0.00 38 1010.7
20260508043744 58 58 2.6 3.5 0.00 0.00 0.00 38 1010.8
20260508043228 58 62 2.6 4.3 0.00 0.00 0.00 37 1010.8
20260508043022 58 62 2.6 4.3 0.00 0.00 0.00 37 1010.3
20260508042739 59 62 2.6 4.3 0.00 0.00 0.00 37 1010.8
20260508042252 59 66 3.5 4.3 0.00 0.00 0.00 37 1010.7
20260508041743 59 71 3.5 4.3 0.00 0.00 0.00 37 1010.7
20260508041608 58 64 2.6 4.3 0.00 0.00 0.00 37 1010.2
20260508041514 58 65 2.6 4.3 0.00 0.00 0.00 37 1010.2
20260508041227 59 66 2.6 4.3 0.00 0.00 0.00 37 1010.8
20260508040733 59 67 3.5 6.1 0.00 0.00 0.00 37 1010.8
20260508040243 59 83 3.5 6.1 0.00 0.00 0.00 37 1010.8
20260508040010 58 92 3.5 6.1 0.00 0.00 0.00 37 1010.2
20260508035726 59 88 4.3 6.1 0.00 0.00 0.00 37 1010.7
20260508035237 59 86 3.5 6.1 0.00 0.00 0.00 37 1010.6
20260508034723 59 83 3.5 6.1 0.00 0.00 0.00 37 1010.5
20260508034526 59 68 3.5 5.2 0.00 0.00 0.00 36 1010.1
20260508034237 60 86 3.5 5.2 0.00 0.00 0.00 36 1010.6
20260508033746 60 82 3.5 5.2 0.00 0.00 0.00 36 1010.6
20260508033237 60 49 3.5 4.3 0.00 0.00 0.00 36 1010.7
20260508033009 60 49 2.6 3.5 0.00 0.00 0.00 36 1010.2
20260508032748 60 49 2.6 3.5 0.00 0.00 0.00 36 1010.8
20260508032238 60 49 2.6 3.5 0.00 0.00 0.00 36 1010.8
20260508031749 61 49 2.6 3.5 0.00 0.00 0.00 35 1010.7
20260508031532 60 49 2.6 3.5 0.00 0.00 0.00 35 1010.2
20260508031302 61 49 2.6 3.5 0.00 0.00 0.00 35 1010.7
20260508030723 61 49 2.6 4.3 0.00 0.00 0.00 35 1010.7
20260508030237 61 49 3.5 4.3 0.00 0.00 0.00 35 1010.7
20260508030019 61 49 2.6 4.3 0.00 0.00 0.00 35 1010.2
20260508025744 61 49 3.5 4.3 0.00 0.00 0.00 35 1010.7
20260508025225 61 49 3.5 4.3 0.00 0.00 0.00 34 1010.7
20260508024736 61 49 3.5 5.2 0.00 0.00 0.00 34 1010.6
20260508024525 61 49 2.6 5.2 0.00 0.00 0.00 34 1010.1
20260508024223 62 49 3.5 5.2 0.00 0.00 0.00 33 1010.5
20260508023736 62 44 2.6 4.3 0.00 0.00 0.00 33 1010.5
20260508023222 62 44 1.7 3.5 0.00 0.00 0.00 32 1010.5
20260508023030 62 32 1.7 4.3 0.00 0.00 0.00 32 1010.1
20260508022733 62 42 2.6 4.3 0.00 0.00 0.00 32 1010.5
20260508022244 63 26 2.6 4.3 0.00 0.00 0.00 32 1010.4
20260508021727 63 19 3.5 4.3 0.00 0.00 0.00 31 1010.3
20260508021530 63 10 2.6 4.3 0.00 0.00 0.00 31 1009.8
20260508021239 63 9 2.6 3.5 0.00 0.00 0.00 31 1010.2
20260508020750 64 9 1.7 3.5 0.00 0.00 0.00 31 1010.0
20260508020242 64 9 1.7 3.5 0.00 0.00 0.00 30 1010.0
20260508020058 64 9 2.6 3.5 0.00 0.00 0.00 30 1009.4
20260508015733 64 9 2.6 3.5 0.00 0.00 0.00 30 1009.9
20260508015246 65 5 2.6 4.3 0.00 0.00 0.00 30 1009.9
20260508014730 65 9 2.6 5.2 0.00 0.00 0.00 29 1009.9
20260508014600 65 355 2.6 5.2 0.00 0.00 0.00 30 1009.4
20260508014243 65 350 3.5 5.2 0.00 0.00 0.00 30 1009.8
20260508013809 66 355 3.5 5.2 0.00 0.00 0.00 29 1009.9
20260508013235 66 350 3.5 5.2 0.00 0.00 0.00 29 1009.8
20260508013044 66 355 3.5 5.2 0.00 0.00 0.00 28 1009.2
20260508012748 67 343 4.3 5.2 0.00 0.00 0.00 28 1009.7
20260508012233 67 355 3.5 5.2 0.00 0.00 0.00 28 1009.6
20260508011807 68 350 4.3 8.7 0.00 0.00 0.00 28 1009.6
20260508011524 68 5 3.5 8.7 0.00 0.00 0.00 28 1009.1
20260508011232 68 355 5.2 8.7 0.00 0.00 0.00 27 1009.5
20260508010744 69 360 6.1 8.7 0.00 0.00 0.00 27 1009.5
20260508010221 70 360 6.1 7.8 0.00 0.00 0.00 27 1009.5
20260508010029 69 360 4.3 7.8 0.00 0.00 0.00 27 1009.0
20260508005754 70 347 4.3 7.8 0.00 0.00 0.00 27 1009.4
20260508005245 70 345 3.5 5.2 0.00 0.00 0.00 26 1009.4
20260508004733 70 340 3.5 7.0 0.00 0.00 0.00 26 1009.4
20260508004514 70 316 3.5 11.3 0.00 0.00 0.00 26 1008.9
20260508004246 71 333 3.5 11.3 0.00 0.00 0.00 25 1009.2
20260508003728 71 327 7.0 12.2 0.00 0.00 0.00 25 1009.1
20260508003241 71 331 7.8 12.2 0.00 0.00 0.00 24 1009.2
20260508003022 71 321 7.8 12.2 0.00 0.00 0.00 24 1008.7
20260508002725 71 355 6.1 10.4 0.00 0.00 0.00 24 1009.2
20260508002234 71 305 6.1 13.9 0.00 0.00 0.00 23 1009.2
20260508001805 72 343 7.8 13.9 0.00 0.00 0.00 23 1009.1
20260508001503 71 317 7.0 11.3 0.00 0.00 0.00 23 1008.6
20260508001230 72 317 7.0 13.0 0.00 0.00 0.00 24 1009.1
20260508000740 72 334 8.7 13.9 0.00 0.00 0.00 24 1009.0
20260508000227 72 311 7.8 14.8 0.00 0.00 0.00 24 1009.0
20260508000011 72 325 7.8 14.8 0.00 0.00 0.00 24 1008.6
20260507235737 73 314 7.8 14.8 0.00 0.00 0.00 23 1009.0
20260507235249 73 304 9.6 17.4 0.00 0.00 0.00 24 1009.0
20260507234736 73 291 8.7 17.4 0.00 0.00 0.00 23 1009.0
20260507234505 73 321 11.3 17.4 0.00 0.00 0.00 23 1008.7
20260507234251 73 275 8.7 12.2 0.00 0.00 0.00 24 1009.1
20260507233741 73 292 6.1 10.4 0.00 0.00 0.00 25 1009.1
20260507233226 73 317 5.2 9.6 0.00 0.00 0.00 25 1009.0
20260507233044 72 302 6.1 13.9 0.00 0.00 0.00 25 1008.6
20260507232740 73 318 5.2 13.9 0.00 0.00 0.00 24 1009.0
20260507232224 73 324 10.4 13.9 0.00 0.00 0.00 24 1009.1
20260507231736 73 272 7.0 11.3 0.00 0.00 0.00 25 1009.0
20260507231552 72 292 5.2 11.3 0.00 0.00 0.00 27 1008.9
20260507231222 73 277 7.8 11.3 0.00 0.00 0.00 26 1009.1
20260507230749 73 331 5.2 14.8 0.00 0.00 0.00 27 1009.1
20260507230233 73 327 9.6 14.8 0.00 0.00 0.00 25 1009.0
20260507230052 72 330 9.6 14.8 0.00 0.00 0.00 27 1008.7
20260507225745 72 263 6.1 13.0 0.00 0.00 0.00 26 1009.0
20260507225227 73 342 7.8 13.9 0.00 0.00 0.00 27 1009.0
20260507224738 73 338 8.7 14.8 0.00 0.00 0.00 27 1009.0
20260507224559 72 343 9.6 14.8 0.00 0.00 0.00 26 1008.6
20260507224230 73 325 10.4 14.8 0.00 0.00 0.00 26 1009.1
20260507223740 73 312 7.0 13.9 0.00 0.00 0.00 27 1009.2
20260507223308 74 323 9.6 13.9 0.00 0.00 0.00 26 1009.2
20260507223022 73 324 5.2 13.0 0.00 0.00 0.00 27 1008.8
20260507222730 73 291 7.8 13.0 0.00 0.00 0.00 27 1009.2
20260507222245 73 319 10.4 13.9 0.00 0.00 0.00 26 1009.2
20260507221728 74 321 10.4 15.6 0.00 0.00 0.00 26 1009.2
20260507221529 73 315 9.6 16.5 0.00 0.00 0.00 26 1008.9
20260507221241 73 296 8.7 16.5 0.00 0.00 0.00 26 1009.2
20260507220724 74 338 11.3 16.5 0.00 0.00 0.00 25 1009.2
20260507220235 74 292 9.6 15.6 0.00 0.00 0.00 25 1009.2
20260507220031 74 298 6.1 17.4 0.00 0.00 0.00 26 1008.8
20260507215743 74 284 7.8 17.4 0.00 0.00 0.00 25 1009.2
20260507215227 74 278 11.3 20.0 0.00 0.00 0.00 24 1009.2
20260507214739 74 305 14.8 20.0 0.00 0.00 0.00 25 1009.1
20260507214538 73 294 11.3 19.1 0.00 0.00 0.00 24 1008.7
20260507214252 74 286 13.9 20.9 0.00 0.00 0.00 23 1009.1
20260507213743 74 275 13.0 20.9 0.00 0.00 0.00 22 1009.2
20260507213223 74 320 9.6 15.6 0.00 0.00 0.00 26 1009.2
20260507213020 74 309 7.8 17.4 0.00 0.00 0.00 28 1008.8
20260507212734 74 313 8.7 17.4 0.00 0.00 0.00 26 1009.3
20260507212246 74 305 12.2 22.6 0.00 0.00 0.00 26 1009.2
20260507211728 75 296 15.6 22.6 0.00 0.00 0.00 25 1009.1
20260507211526 75 302 14.8 20.9 0.00 0.00 0.00 26 1008.8
20260507211241 75 343 13.0 20.0 0.00 0.00 0.00 27 1009.2
20260507210725 75 344 8.7 20.0 0.00 0.00 0.00 27 1009.2
20260507210258 74 333 9.6 18.2 0.00 0.00 0.00 27 1009.4
20260507210058 73 305 5.2 17.4 0.00 0.00 0.00 27 1008.9
20260507210005 73 252 5.2 17.4 0.00 0.00 0.00 27 1008.9
20260507205722 74 250 9.6 17.4 0.00 0.00 0.00 28 1009.4
20260507205234 75 296 10.4 20.9 0.00 0.00 0.00 26 1009.3
20260507204746 75 292 14.8 20.9 0.00 0.00 0.00 24 1009.4
20260507204516 74 284 11.3 19.1 0.00 0.00 0.00 26 1009.1
20260507204231 74 293 11.3 19.1 0.00 0.00 0.00 25 1009.4
20260507203736 74 300 10.4 18.2 0.00 0.00 0.00 26 1009.5
20260507203221 75 319 12.2 18.2 0.00 0.00 0.00 23 1009.5
20260507203020 75 266 12.2 18.2 0.00 0.00 0.00 23 1009.1
20260507202732 75 290 11.3 18.2 0.00 0.00 0.00 26 1009.6
20260507202242 75 302 11.3 20.9 0.00 0.00 0.00 27 1009.6
20260507201727 74 229 7.0 20.9 0.00 0.00 0.00 28 1009.6
20260507201524 74 249 10.4 20.9 0.00 0.00 0.00 27 1009.3
20260507201242 75 284 8.7 18.2 0.00 0.00 0.00 29 1009.6
20260507200726 76 300 13.9 17.4 0.00 0.00 0.00 25 1009.6
20260507200253 76 323 11.3 16.5 0.00 0.00 0.00 25 1009.6
20260507200103 75 294 10.4 16.5 0.00 0.00 0.00 27 1009.3
20260507195803 74 297 8.7 19.1 0.00 0.00 0.00 31 1009.6
20260507195226 74 275 10.4 19.1 0.00 0.00 0.00 30 1009.7
20260507194739 74 290 9.6 17.4 0.00 0.00 0.00 31 1009.6
20260507194539 74 342 12.2 21.7 0.00 0.00 0.00 29 1009.3
20260507194224 75 289 11.3 21.7 0.00 0.00 0.00 30 1009.6
20260507193733 74 306 13.9 21.7 0.00 0.00 0.00 28 1009.5
20260507193246 74 238 9.6 16.5 0.00 0.00 0.00 28 1009.6
20260507193051 74 251 11.3 16.5 0.00 0.00 0.00 25 1009.2
20260507192729 75 262 11.3 15.6 0.00 0.00 0.00 29 1009.7
20260507192236 73 209 7.0 14.8 0.00 0.00 0.00 35 1009.7
20260507191748 73 317 7.0 18.2 0.00 0.00 0.00 31 1009.6
20260507191547 73 297 10.4 18.2 0.00 0.00 0.00 32 1009.3
20260507191233 74 244 13.9 20.0 0.00 0.00 0.00 33 1009.7
20260507190742 73 252 9.6 20.0 0.00 0.00 0.00 33 1009.6